Погода Викулово

Погода Викулово : погода сейчас, прогноз погоды и архив. Всё, что Вы хотите узнать о погоде Викулово!

Поиск расширенной информации на нашем сайте:

Другие новости

Новости СМИ2

Главная страница сайта

Новости сайта

03.07.2017

Напоминаем, что на нашем специализированном сайте Метеоцентр.Азия вы можете получить высокодетализированные автоматические прогнозы погоды по пунктам России, СНГ и мира в авиационном формате (включающие направление и скорость ветра, видимость, явления погоды, количество и форму облачности, нижнюю и верхнюю границу облачности).


Погода Викулово - сегодня

Время (UTC), дата Ветер
(°,м/с) 
Видим.   Явления Облачность Т
(°С)
Тd
(°С)
f(%) Тe
(°С)
Pmin
(гПа)
dP
(гПа)
Po
(мм)
O2
(г/м3)
Тmin Tmax R s Состояние
почвы
00 12.11.18 250 (З) 10 км    ясно 
-10.8 -14.5 74 -14  1031.1  -1.4  766  323           
03 12.11.18 250 (З) 10 км    8/0 средняя, верхняя 
[Ac trans|Cs]
-11.4 -14.6 77 -15  1029.8  -1.3  765  323  -11.6    0.0  равномерный
сухой снег
100% 
06 12.11.18 260 (З) 20000 м    8/0 средняя, верхняя 
[As trans|Cs]
-8.9 -13.6 69 -13  1028.6  -1  764  319           
09 12.11.18 260 (З) 20000 м    8/0 средняя, верхняя 
[Ac trans|Ci fib]
-6.8 -13.2 60 -11  1027.3  -1.3  763  316           
12 12.11.18 290 (З) 20000 м    9/8 600 м средняя 
[Sc|As trans]
-6.6 -12.7 62 -9  1027.2  763  316           
15 12.11.18 260 (З) 10 км    8/0 средняя, верхняя 
[As trans|Cs]
-8 -13.8 63 -10  1027.3  0.1  763  318    -6.3       
18 12.11.18 300 (СЗ) 10 км    9/9 600 м 
[Sc]
-6.7 -12.4 64 -9  1027.2  0.1  763  316           
21 12.11.18 290 (З) 10 км    10/10 600 м 
[Sc]
-6.3 -11.3 68 -8  1027.8  0.6  763  316           
00 13.11.18 310 (СЗ) 4000 м  слаб. снег  10/10 600 м 
[Sc]
-6 -9.2 78 -9  1028.7  0.9  764  316           
03 13.11.18 300 (СЗ) 20000 м  {снег}  10/0 средняя, верхняя 
[Ac As|Cs]
-5.2 -8.6 77 -8  1030  1.3  765  315  -8.4    0.2  равномерный
сухой снег
100% 
06 13.11.18 310 (СЗ) 20000 м  {снег}  10/0 средняя 
[Ac As]
-3.5 -7.5 74 -6  1031.1  1.1  766  313           
09 13.11.18 260 (З) 20000 м    10/0 средняя 
[Ac As]
-2.6 -7 72 -5  1031.2  0.1  766  312           
12 13.11.18 220 (ЮЗ) 20000 м    10/0 средняя 
[Ac As]
-3.2 -7.1 74 -4  1031.4  0.2  766  313           
18 13.11.18 220 (ЮЗ) 20000 м    10/0 средняя 
[Ac As]
-3 -8.1 68 -4  1029.6  -1.2  765  312           
21 13.11.18 220 (ЮЗ) 20000 м    ясно 
-6.3 -10.6 71 -8  1028.8  -0.9  764  316           
00 14.11.18 220 (ЮЗ) 20000 м    ясно 
-9 -13 73 -11  1028.3  -0.6  764  319           
03 14.11.18 220 (ЮЗ) 20000 м    8/0 средняя, верхняя 
[Ac trans|Cs]
-10 -14.6 69 -12  1027.9  -0.4  763  321  -10.1      равномерный
сухой снег
100% 
06 14.11.18 250 (З) 20000 м    8/0 верхняя 
[Cs]
-6.4 -15 50 -10  1027.5  -0.4  763  316           
09 14.11.18 220 (ЮЗ) 20000 м    6/0 верхняя 
[Ci fib]
-4.5 -13.9 48 -8  1025.8  -1.6  762  313           
12 14.11.18 210 (ЮЗ) 20000 м    8/0 средняя 
[Ac As]
-5.9 -13.8 54 -8  1024.9  -0.9  761  315           
15 14.11.18 240 (ЮЗ) 20000 м    4/0 средняя 
[As trans]
-3.9 -14.8 42 -6  1024.1  -0.8  761  312    -3.4       
18 14.11.18 240 (ЮЗ) 20000 м    10/0 средняя 
[As op]
-2.2 -13.5 42 -4  1024.2  0.1  761  310           
21 14.11.18 250 (З) 20000 м    10/0 средняя 
[As op]
-1.7 -13.2 41 -4  1025  0.8  761  310           
00 15.11.18 270 (З) 20000 м    10/0 средняя 
[As op]
-1.9 -11.8 47 -4  1026  762  310           
03 15.11.18 260 (З) 20000 м    10/0 средняя 
[As op]
-2 -9.5 56 -1  1027.5  1.4  763  311  -4.3      равномерный
сухой снег
100% 
Время (UTC), дата Ветер
(°,м/с) 
Видим.   Явления Облачность Т
(°С)
Тd
(°С)
f(%) Тe
(°С)
Pmin
(гПа)
dP
(гПа)
Po
(мм)
O2
(г/м3)
Тmin Tmax R s Состояние
почвы

Для получения пояснительной информации подведите курсор к названию столбца.

ПОГОДА Викулово - архив

Всё, что Вы хотите узнать о погоде Викулово - удобно и подробно!

Выберите нужную дату (начиная с 1 января 2015* года) и нажмите кнопку "Найти".
Будут отображены архивные сводки погоды по пункту Викулово, начиная с указанной даты.


Отображать данные в формате CSV (для использования в таблицах Excel)


Внимание! Наш архив погоды предназначен исключительно для личного некоммерческого использования в познавательных целях. Если Вам необходимы официальные справки о состоянии погоды (для производственных, юридических, коммерческих и т.п. целей), обращайтесь в органы Росгидромета.

*Примечание: данная дата относится к архиву по метеостанциям СССР (Россия, СНГ, Балтия).
Архив по метеостанциям Зарубежной Европы и Азии (кроме Китая) хранится 10 дней, по другим регионам земного шара (Китай, Африка, Америка, Австралия, Океания) - 1 день.

Викулово - район местоположения метеостанции


Название, широта, долгота, высота метеостанции:
Викулово 56.8°ш. 70.6°д. 78 м над ур. моря [Российская Федерация]

Дополнительная информация

В oтличие oт бoльшинства пoгoдных сайтoв мы публикуем пoдрoбную метеoинфoрмацию в детальнoм прoфессиoнальнoм фoрмате.

Характеристики температуры и влажнoсти вoздуха измеряются на высoте 2 м в тени вдали oт зданий и деревьев.
Скoрoсть ветра измеряется на высoте 10 м (на урoвне рoста челoвека скoрoсть ветра ниже в 1.5-2 раза). Если метеoстанция нахoдится в гoрoде или в лесу, тo скoрoсть ветра занижена на 2-4 м/с пo сравнению с oткрытым местoм. Скoрoсть ветра над акватoриями крупных рек и oзёр, а также на вершинах хoлмoв на 2-5 м/с выше, чем в oбычных услoвиях.
Атмoсфернoе давление в разных тoчках местнoсти мoжет значительнo oтличаться oт давления на метеoстанции, в зависимoсти oт услoвий рельефа (при пoдъёме на 10 м давление пoнижается примернo на 1 мм рт.ст.).